[[{"header":{"parameterUnit":"m.s-1","parameterCategory":1,"la1":30.2991,"la2":30.254,"lo1":-89.0895,"lo2":-89.0444,"dy":0.0017,"dx":0.0017,"nx":28,"ny":28,"refTime":"2024-09-30T09:00:00:Z","depth":0,"parameterNumber":2,"parameterNumberName":"U-component_of_WINDS"},"data":[0,0,0,0,0,0,0,0,0,0,0,0,0,0,0,0,0,0,0,0,0,0,0,0,0,0,0,0,0,0,0,0,0,0,0,0,0,0,0,0,0,0,0,0,0,0,0,0,0,0,0,0,0,0,0,0,0,0,2.799,2.7991,0,2.8097,2.8098,2.81,2.8021,2.8017,2.8014,2.801,2.8121,2.8127,2.8133,0,0,0,0,0,0,0,0,0,0,0,0,0,2.7716,2.7721,2.799,2.7991,2.7992,2.8097,2.8098,2.81,2.8021,2.8017,2.8013,2.8009,2.8119,2.8126,2.8133,0,0,0,0,0,0,0,0,0,0,0,0,0,2.783,2.7723,2.799,2.7966,2.7965,2.8097,2.8098,2.81,2.8022,2.8017,2.8012,2.8007,2.8116,2.8125,2.8134,2.8296,0,0,2.8163,2.8167,0,0,0,0,0,0,0,0,2.7824,2.784,2.7968,2.7968,2.7967,2.804,2.8042,2.8166,2.8023,2.8,2.801,2.8004,2.8098,2.8109,2.814,2.8301,2.8306,2.8164,2.8169,2.8173,2.8176,0,0,0,0,0,0,0,2.7816,2.7835,2.8032,2.797,2.7969,2.7949,2.796,2.8065,2.8077,2.8002,2.7996,2.801,2.8097,2.8131,2.8142,2.8307,2.8163,2.8172,2.8177,2.8181,2.8604,2.861,0,0,0,0,0,0,2.781,2.7829,2.8029,2.8035,2.7881,2.7959,2.797,2.8022,2.8076,2.8079,2.8014,2.8006,2.8118,2.8131,2.8146,2.8337,2.8173,2.8182,2.8187,2.8599,2.8605,2.8612,0,0,0,0,0,0,2.7805,2.7829,2.8024,2.7931,2.7954,2.7969,2.8027,2.8027,2.8061,2.8085,2.8087,2.8048,2.8115,2.8133,2.8259,2.834,2.8186,2.8194,2.8592,2.8601,2.8609,2.8722,0,0,0,0,0,0,2.7797,2.7827,2.7889,2.7933,2.796,2.8136,2.8032,2.8033,2.8077,2.8067,2.8117,2.812,2.8112,2.8245,2.8268,2.835,2.8202,2.8585,2.8596,2.8606,2.8711,2.8733,2.8752,0,0,0,0,0,2.7788,2.7917,2.7893,2.7917,2.8037,2.8141,2.8156,2.8144,2.8084,2.8146,2.8161,2.8119,2.8327,2.8259,2.8284,2.8369,2.8579,2.8593,2.8605,2.8701,2.8729,2.8752,0,0,0,0,0,0,2.7883,2.7923,2.7896,2.8043,2.8089,2.8127,2.8205,2.8173,2.8238,2.8226,2.8208,2.822,2.8351,2.8373,2.8296,2.8528,2.8444,2.8462,2.8509,2.8535,2.8555,2.8547,2.8209,0,0,0,0,0,2.7921,2.8003,2.8033,2.816,2.8184,2.8191,2.8236,2.8222,2.8269,2.8288,2.8313,2.836,2.8436,2.8487,2.8558,2.8714,2.8722,2.8785,2.8805,2.8822,2.8838,2.892,2.8948,2.8654,2.8653,2.8653,0,0,2.8001,2.8033,2.8085,2.818,2.8214,2.8298,2.8208,2.8301,2.8363,2.8303,2.8422,2.8442,2.8494,2.8635,2.8698,2.8657,2.8921,2.8838,2.8852,2.8859,2.8936,2.8964,2.8989,2.8662,2.8661,2.8659,0,0,2.8189,2.8222,2.833,2.8366,2.8419,2.8422,2.8448,2.8491,2.8502,2.8622,2.8578,2.8651,2.8783,2.8821,2.8858,2.9059,2.9021,2.9083,2.919,2.9271,2.9294,2.9314,2.9385,2.9411,2.9098,2.9099,2.9099,0,2.8282,2.8407,2.8391,2.8487,2.8529,2.8478,2.8587,2.8623,2.8696,2.8726,2.8679,2.8842,2.8873,2.9022,2.9071,2.9103,2.9131,2.9077,2.9292,2.9312,2.9331,2.9398,2.9425,2.9106,2.9105,2.9104,2.9104,0,2.8517,2.8604,2.8686,2.8757,2.8809,2.8911,2.891,2.8964,2.8946,2.8955,2.9077,2.9112,2.9189,2.9224,2.9207,2.937,2.9342,2.9294,2.9209,2.9366,2.9429,2.9455,2.9116,2.9113,2.9111,2.9109,0,0,2.8768,2.8829,2.8859,2.889,2.8944,2.901,2.911,2.9185,2.9231,2.9283,2.9366,2.9478,2.9433,2.9475,2.9462,2.9533,2.9688,2.9475,2.9476,2.9513,2.9868,2.9903,2.9933,2.9664,2.9669,2.9673,2.9863,0,2.8958,2.9131,2.9119,2.9283,2.9362,2.9314,2.9401,2.9443,2.9453,2.9522,2.9533,2.9612,2.9548,2.9572,2.964,2.9655,2.9759,2.9641,2.974,2.9743,2.9727,2.9966,3.0004,3.0182,2.9887,2.9892,2.9895,0,2.9203,2.9262,2.9433,2.9473,2.9506,2.9585,2.9651,2.9718,2.9764,2.9767,2.9813,2.9788,2.9888,2.9801,2.9938,2.9858,2.9897,2.9911,2.9917,2.9925,2.9828,2.998,3.0239,3.0265,2.9933,2.993,2.9927,0,2.9367,2.9491,2.9608,2.9637,2.9687,2.9743,2.9766,2.9807,2.9853,2.9911,2.994,3.001,3.0048,3.0102,3.0096,3.0034,3.0235,3.0148,3.0239,3.0239,3.0283,3.028,3.0551,3.0311,3.031,3.031,3.0309,0,2.958,2.9686,2.9683,2.9755,2.9872,2.9857,2.9974,2.9991,3.0028,3.0102,3.0065,3.0136,3.0124,3.0195,3.0191,3.0304,3.0322,3.0326,3.0324,3.0329,3.0328,3.0354,3.0341,3.0317,3.0315,3.0314,3.0313,0,2.9783,2.9786,2.991,2.9947,2.9959,3.0044,3.0075,3.0143,3.015,3.0245,3.0266,3.0277,3.0358,3.0358,3.0451,3.0448,3.0586,3.057,3.057,3.0567,3.0657,3.0648,3.0954,3.0992,3.0727,3.073,3.0732,0,2.9918,2.9999,3.0044,3.0091,3.0118,3.0194,3.024,3.0228,3.0277,3.0335,3.0396,3.0474,3.0535,3.0667,3.0683,3.0753,3.0738,3.084,3.0748,3.075,3.0738,3.0733,3.074,3.0858,3.0861,3.0863,3.0865,0,3.0157,3.0154,3.0221,3.0289,3.0344,3.0397,3.0446,3.0487,3.048,3.0537,3.0619,3.0666,3.076,3.0838,3.0905,3.0929,3.0896,3.0894,3.0918,3.0924,3.092,3.0922,3.0618,3.0887,3.0885,3.0883,3.0882,3.0881,3.033,3.0399,3.0441,3.0516,3.0552,3.0598,3.0663,3.0678,3.0746,3.0821,3.081,3.0901,3.0944,3.1032,3.1061,3.1132,3.1096,3.1132,3.1141,3.115,3.1159,3.091,3.1145,3.1144,3.1144,3.1143,3.1143,0,3.0566,3.059,3.066,3.0729,3.0788,3.0752,3.0803,3.0855,3.0936,3.0979,3.104,3.1134,3.1208,3.1229,3.1301,3.1354,3.134,3.1373,3.1368,3.1374,3.1188,3.1159,3.1382,3.1382,3.1382,3.1382,3.1382,3.1382,3.0696,3.0809,3.0811,3.0941,3.0965,3.1054,3.1086,3.1128,3.1162,3.1268,3.1329,3.1343,3.1377,3.145,3.1517,3.1521,3.1548,3.1587,3.1585,3.1411,3.1387,3.1364,3.1337,3.1593,3.1594,3.1765,3.1766,3.1768]},{"header":{"parameterUnit":"m.s-1","parameterCategory":1,"la1":30.2991,"la2":30.254,"lo1":-89.0895,"lo2":-89.0444,"dy":0.0017,"dx":0.0017,"nx":28,"ny":28,"refTime":"2024-09-30T09:00:00:Z","depth":0,"parameterNumber":3,"parameterNumberName":"V-component_of_WINDS"},"data":[0,0,0,0,0,0,0,0,0,0,0,0,0,0,0,0,0,0,0,0,0,0,0,0,0,0,0,0,0,0,0,0,0,0,0,0,0,0,0,0,0,0,0,0,0,0,0,0,0,0,0,0,0,0,0,0,0,0,0.7889,0.7889,0,0.7832,0.7831,0.7831,0.7723,0.7721,0.7719,0.7717,0.7661,0.7661,0.7662,0,0,0,0,0,0,0,0,0,0,0,0,0,0.7907,0.7907,0.789,0.7889,0.7888,0.7832,0.7831,0.783,0.7723,0.7721,0.7718,0.7716,0.7661,0.7661,0.7662,0,0,0,0,0,0,0,0,0,0,0,0,0,0.788,0.7907,0.789,0.7828,0.7822,0.7832,0.7831,0.783,0.7724,0.7721,0.7718,0.7715,0.7661,0.7661,0.7662,0.7729,0,0,0.7664,0.7664,0,0,0,0,0,0,0,0,0.7881,0.7879,0.7838,0.7832,0.7825,0.7781,0.7817,0.7796,0.7725,0.7761,0.7717,0.7713,0.7704,0.7701,0.7697,0.7726,0.7724,0.7664,0.7664,0.7665,0.7665,0,0,0,0,0,0,0,0.7883,0.7881,0.7867,0.7837,0.783,0.7803,0.7796,0.7812,0.7751,0.7758,0.775,0.7744,0.77,0.7696,0.7695,0.7723,0.7664,0.7665,0.7665,0.7665,0.7801,0.7804,0,0,0,0,0,0,0.7894,0.7883,0.7869,0.7865,0.7846,0.7805,0.7797,0.7799,0.775,0.774,0.7747,0.7739,0.7697,0.7694,0.7692,0.7766,0.7665,0.7665,0.7666,0.7798,0.7802,0.7805,0,0,0,0,0,0,0.7895,0.7894,0.7871,0.7872,0.7867,0.7808,0.7811,0.7799,0.7796,0.7742,0.7731,0.7755,0.7694,0.7691,0.772,0.7762,0.7666,0.7666,0.7794,0.7799,0.7804,0.7915,0,0,0,0,0,0,0.7896,0.7895,0.792,0.7873,0.7867,0.79,0.7814,0.78,0.7797,0.7786,0.7747,0.7737,0.7691,0.7719,0.772,0.7762,0.7667,0.779,0.7796,0.7802,0.7907,0.7923,0.7936,0,0,0,0,0,0.7897,0.7955,0.7922,0.7921,0.7897,0.7902,0.7899,0.7845,0.7801,0.7825,0.779,0.7738,0.7757,0.7723,0.7723,0.7766,0.7787,0.7795,0.7802,0.7901,0.792,0.7936,0,0,0,0,0,0,0.801,0.7948,0.791,0.7955,0.7935,0.7884,0.7914,0.7867,0.786,0.7851,0.7784,0.7776,0.7813,0.7791,0.7755,0.7826,0.7764,0.7771,0.7839,0.7857,0.7871,0.7876,0.7667,0,0,0,0,0,0.804,0.8049,0.7994,0.8039,0.803,0.7974,0.7974,0.7933,0.791,0.7901,0.7868,0.7848,0.7849,0.7852,0.785,0.7903,0.7892,0.7932,0.7946,0.7959,0.7966,0.7991,0.8007,0.7829,0.7829,0.7829,0,0,0.8103,0.8069,0.808,0.806,0.804,0.805,0.7968,0.7983,0.799,0.7904,0.7928,0.7903,0.7876,0.7916,0.7932,0.79,0.8013,0.7968,0.7978,0.7979,0.8,0.8017,0.8032,0.7834,0.7833,0.7832,0,0,0.8222,0.8198,0.8231,0.8211,0.818,0.8142,0.815,0.8106,0.8085,0.8108,0.8043,0.805,0.8054,0.8036,0.8028,0.8136,0.8088,0.8138,0.8215,0.8239,0.8253,0.8265,0.8303,0.8318,0.8145,0.8145,0.8146,0,0.8304,0.8317,0.8255,0.8273,0.8266,0.8186,0.8219,0.8203,0.8174,0.8171,0.8134,0.8135,0.8111,0.8145,0.8171,0.8167,0.8174,0.8143,0.8256,0.8267,0.8278,0.8313,0.8328,0.8152,0.8151,0.815,0.815,0,0.8418,0.8428,0.8458,0.843,0.8426,0.8452,0.8394,0.8397,0.8356,0.8321,0.8344,0.8312,0.8301,0.8306,0.8267,0.8334,0.8314,0.8268,0.8204,0.8302,0.8334,0.8347,0.8161,0.8158,0.8156,0.8155,0,0,0.8611,0.8544,0.8557,0.8542,0.85,0.8506,0.8527,0.8515,0.8518,0.85,0.8516,0.8518,0.8474,0.8465,0.8422,0.8444,0.853,0.8394,0.8392,0.842,0.86,0.8636,0.8653,0.8497,0.8499,0.8501,0.8602,0,0.8721,0.8753,0.8696,0.8741,0.8748,0.8671,0.8689,0.8665,0.8632,0.8633,0.8597,0.86,0.8542,0.8535,0.8553,0.8516,0.8565,0.8508,0.8511,0.8512,0.8521,0.867,0.8708,0.8806,0.8615,0.8617,0.8618,0,0.8855,0.884,0.8886,0.8838,0.8839,0.8857,0.8839,0.8841,0.8812,0.8786,0.8774,0.8723,0.8739,0.8676,0.8698,0.866,0.8657,0.8639,0.8641,0.864,0.8572,0.8673,0.8836,0.8851,0.8638,0.8636,0.8635,0,0.8989,0.8982,0.9007,0.8997,0.8942,0.8956,0.8934,0.8901,0.8896,0.8881,0.8877,0.8864,0.8858,0.8849,0.8795,0.8754,0.8823,0.8756,0.8802,0.8803,0.8821,0.8821,0.8986,0.8819,0.8819,0.8818,0.8818,0,0.9119,0.915,0.9066,0.9083,0.9114,0.9048,0.9081,0.9051,0.9022,0.903,0.8962,0.8972,0.89,0.8901,0.8859,0.8883,0.888,0.886,0.8849,0.8866,0.8869,0.8865,0.8857,0.8822,0.8821,0.8821,0.882,0,0.9276,0.9221,0.9244,0.9189,0.9176,0.9202,0.9154,0.9167,0.9128,0.9139,0.9138,0.9078,0.9075,0.902,0.9007,0.8978,0.9019,0.8995,0.9029,0.9022,0.9071,0.9067,0.924,0.9259,0.9079,0.9081,0.9083,0,0.9363,0.9384,0.9331,0.9331,0.9311,0.9313,0.9306,0.9241,0.9237,0.9203,0.9219,0.9211,0.9201,0.92,0.9156,0.9144,0.912,0.9181,0.9118,0.9134,0.912,0.912,0.9121,0.9195,0.9197,0.9199,0.92,0,0.9522,0.9493,0.9487,0.947,0.9464,0.9448,0.9428,0.9432,0.936,0.9359,0.9355,0.9347,0.9331,0.9324,0.9303,0.928,0.9229,0.922,0.923,0.9249,0.9268,0.9258,0.9066,0.9217,0.9215,0.9214,0.9213,0.9213,0.9647,0.9661,0.9625,0.9619,0.9596,0.9578,0.9586,0.9547,0.9542,0.9524,0.9485,0.9486,0.9453,0.942,0.9401,0.9401,0.937,0.9385,0.9389,0.9394,0.9403,0.9267,0.9397,0.9397,0.9396,0.9396,0.9395,0,0.9802,0.9774,0.9769,0.9742,0.9737,0.9686,0.966,0.9659,0.9661,0.9634,0.9625,0.9619,0.961,0.9563,0.9549,0.9558,0.9534,0.9556,0.9556,0.9551,0.9432,0.9425,0.9576,0.9576,0.9576,0.9576,0.9576,0.9576,0.9883,0.9904,0.987,0.9879,0.985,0.985,0.984,0.9822,0.98,0.9796,0.9788,0.9756,0.9721,0.9703,0.9692,0.9678,0.9677,0.9708,0.9686,0.9577,0.9559,0.9543,0.9536,0.9708,0.9708,0.9805,0.9806,0.9806]}]]